Regional Weather Roundup
Issued by NWS Grand Forks, ND

Home | Current Version | Previous Version | Text Only | Print | Product List | Glossary On
Versions: 1 2 3 4 5 6 7 8 9 10 11 12 13 14 15 16 17 18 19 20 21 22 23 24 25 26 27 28 29 30 31 32 33 34 35 36 37 38 39 40 41 42 43 44 45 46 47 48 49 50
000
ASUS43 KFGF 240031
RWRFGF
PRAIRIE TO PINES  WEATHER ROUNDUP
NATIONAL WEATHER SERVICE EASTERN NORTH DAKOTA/GRAND FORKS ND
700 PM CDT THU MAR 23 2017

 **SATELLITE DATA USED TO AUGMENT SKY COVER AT AUTOMATED STATIONS**
 *****  WEATHER ACROSS EASTERN NORTH DAKOTA  *****

CITY           SKY/WX    TMP DP  RH WIND       PRES   REMARKS
GRAND FORKS    CLOUDY    37  35  92 S8        29.80S
6HR MIN TEMP:  35; 6HR MAX TEMP:  39; 6HR PCP:  0.35;

GRAND FRKS AFB CLOUDY    36  35  99 CALM      29.80S
DEVILS LAKE    CLOUDY    35  33  92 CALM      29.79R
6HR MIN TEMP:  35; 6HR MAX TEMP:  36; 6HR PCP: TRACE;

FARGO          CLOUDY    37  36  96 SE8       29.80R FOG
WAHPETON ARPT  CLOUDY    34  32  93 SE8       29.79S
$$

 ***** WEATHER ACROSS CENTRAL AND WESTERN NORTH DAKOTA  *****

CITY           SKY/WX    TMP DP  RH WIND       PRES   REMARKS
BISMARCK       LGT RAIN  42  39  89 NW7       29.80R FOG
6HR MIN TEMP:  38; 6HR MAX TEMP:  42; 6HR PCP:  0.01;

MINOT          FAIR      42  34  73 N8        29.78S
6HR MIN TEMP:  41; 6HR MAX TEMP:  47;

JAMESTOWN      CLOUDY    40  37  89 CALM      29.78R
6HR MIN TEMP:  38; 6HR MAX TEMP:  44; 6HR PCP:  0.01;

MINOT AFB      FAIR      38  32  79 N7        29.78R
GARRISON         N/A     43  36  76 N3        29.78R
WILLISTON      FAIR      56  36  47 NE8       29.80R
6HR MIN TEMP:  49; 6HR MAX TEMP:  58;

DICKINSON      CLOUDY    49  34  56 S6        29.77R
6HR MIN TEMP:  48; 6HR MAX TEMP:  56; 6HR PCP: TRACE;

HETTINGER      LGT RAIN  43  40  89 E6        29.82R
6HR MIN TEMP:  42; 6HR MAX TEMP:  46; 6HR PCP:  0.11;

$$

 *****  OTHER AIRPORT OBSERVATIONS IN OUR AREA  *****

CITY           SKY/WX    TMP DP  RH WIND       PRES   REMARKS
WALHALLA       NOT AVBL
GRAFTON AIRPOR FAIR      34  34 100 SE6       29.82R
VALLEY CITY AR CLOUDY    36  36 100 S6        29.81R
CANDO          NOT AVBL
CAVALIER APRT  NOT AVBL
GWINNER        FOG       36  36 100 MISG      29.78R VSB 3/4
SHEYENNE NWR     N/A     36  36 100 SE7       29.95S
ROLLA          FAIR      36  34  93 N7        29.78R
 ***** THE ABOVE OBSERVATIONS ARE NON NWS ARE NOT QUALITY
       CONTROLLED AND MAY MIS-REPORT RAIN FOR SNOW...
$$

  *****  WEATHER ACROSS NORTHERN MINNESOTA  *****

CITY           SKY/WX    TMP DP  RH WIND       PRES   REMARKS
FLAG ISLAND    CLOUDY    34  32  93 S8        29.80R
WARROAD        CLOUDY    36  32  87 S5        29.82R
ROSEAU         CLOUDY    37  32  81 SW7       29.82R
HALLOCK        CLOUDY    36  34  93 S6        29.81R
THF RVR FALLS  LGT RAIN N/A N/A N/A SW5       29.82R
                                      6HR PCP:  0.33;

BAUDETTE       CLOUDY    34  32  92 S7        29.81R
6HR MIN TEMP:  34; 6HR MAX TEMP:  39; 6HR PCP:  0.13;

WASKISH        CLOUDY    36  34  93 CALM      29.83R
CROOKSTON      CLOUDY    34  34 100 S9        29.82F
STEPHEN NDAWN    N/A     36  34  93 S3          N/A
GREENBUSH NDAW   N/A     36  34  93 S3          N/A
$$
  *****  WEATHER ACROSS CENTRAL AND WEST MINNESOTA  *****

CITY           SKY/WX    TMP DP  RH WIND       PRES   REMARKS
FOSSTON        LGT RAIN  34  30  86 S7        29.81R
BEMIDJI        DRIZZLE   33  32  96 S3        29.82F
PARK RAPIDS    CLOUDY    34  31  88 CALM      29.80F
6HR MIN TEMP:  34; 6HR MAX TEMP:  39; 6HR PCP:  0.08;

ELBOW LAKE     CLOUDY    34  34 100 SE8       29.80R FOG
6HR MIN TEMP:  34; 6HR MAX TEMP:  41; 6HR PCP:  0.01;

WADENA         CLOUDY    32  32 100 CALM      29.81S FOG
DETROIT LAKES  RAIN      34  32  93 SE8       29.81R
MOORHEAD       DRIZZLE   36  34  93 SE3       29.81R
FERGUS FALLS   DRIZZLE   36  36 100 SE8       29.83S
MORRIS MN      CLOUDY    36  36 100 SE12      29.78R FOG
STAPLES        CLOUDY    32  32 100 CALM      29.82S FOG
$$
  *****  WEATHER ELSEWHERE ACROSS MINNESOTA  *****

CITY           SKY/WX    TMP DP  RH WIND       PRES   REMARKS
DULUTH         LGT RAIN  33  29  85 SE6       29.85F
6HR MIN TEMP:  33; 6HR MAX TEMP:  36; 6HR PCP:  0.08;

INTRNTL FALLS  CLOUDY    34  31  88 W6        29.83R
6HR MIN TEMP:  33; 6HR MAX TEMP:  40; 6HR PCP:  0.23;

ELY            MIX PCPN  30  30 100 S6        29.85F WCI  24
CLOQUET        MIX PCPN  34  28  80 E3        29.84S
WHEATON        CLOUDY    36  34  93 E7        29.80R FOG
BRAINERD       CLOUDY    34  32  92 CALM      29.85R FOG
6HR MIN TEMP:  34; 6HR MAX TEMP:  39; 6HR PCP: TRACE;

HIBBING        MIX PCPN  31  31 100 SE5       29.83F FOG
6HR MIN TEMP:  31; 6HR MAX TEMP:  35; 6HR PCP:  0.08;

ALEXANDRIA     CLOUDY    34  34 100 SE7       29.81R FOG
6HR MIN TEMP:  34; 6HR MAX TEMP:  40; 6HR PCP:  0.02;

SAINT CLOUD    LGT RAIN  35  35 100 E5        29.83R FOG
6HR MIN TEMP:  35; 6HR MAX TEMP:  40; 6HR PCP:  0.06;

MINNEAPOLIS    CLOUDY    39  33  79 SE12      29.83F
6HR MIN TEMP:  38; 6HR MAX TEMP:  40; 6HR PCP:  0.02;

$$

  *****  WEATHER ACROSS SOUTH DAKOTA  *****

CITY           SKY/WX    TMP DP  RH WIND       PRES   REMARKS
SIOUX FALLS    CLOUDY    48  41  76 E8        29.67F
6HR MIN TEMP:  42; 6HR MAX TEMP:  51; 6HR PCP: TRACE;

BROOKINGS      LGT RAIN  41  39  93 SE9       29.69S
WATERTOWN      CLOUDY    39  38  96 SE7       29.71R FOG
6HR MIN TEMP:  37; 6HR MAX TEMP:  39;

HURON          CLOUDY    44  44 100 NE5       29.70R FOG
6HR MIN TEMP:  44; 6HR MAX TEMP:  47;

SISSETON         N/A     36  36 100 S6        29.76R
ABERDEEN       CLOUDY    41  34  76 N8        29.76R
6HR MIN TEMP:  41; 6HR MAX TEMP:  44;

MITCHELL       CLOUDY    49  46  90 N5        29.67R
PIERRE         CLOUDY    57  43  59 SE3       29.66R
6HR MIN TEMP:  56; 6HR MAX TEMP:  64;

MOBRIDGE       CLOUDY    47  37  68 N20       29.71R
RAPID CITY     CLOUDY    46  39  76 N22       29.78R
6HR MIN TEMP:  46; 6HR MAX TEMP:  63; 6HR PCP: TRACE;

$$

  *****  SOME WEATHER IN NEARBY STATES *****

CITY           SKY/WX    TMP DP  RH WIND       PRES   REMARKS
GLASGOW MT     FAIR      58  28  32 MISG      29.81R
6HR MIN TEMP:  51; 6HR MAX TEMP:  63;

GREAT FALLS MT FAIR      55  17  22 W13       29.88R
6HR MIN TEMP:  51; 6HR MAX TEMP:  56;

CHEYENNE WY    PTSUNNY   59  23  25 NW22G29   29.64S
6HR MIN TEMP:  58; 6HR MAX TEMP:  70;

SCOTTSBLUFF NE LGT RAIN  56  45  66 N31G39    29.64R
6HR MIN TEMP:  58; 6HR MAX TEMP:  72; 6HR PCP:  0.01;

OMAHA NE       MOCLDY    74  52  46 S17       29.65R
6HR MIN TEMP:  62; 6HR MAX TEMP:  76; 6HR PCP: TRACE;

DES MOINES IA  FAIR      55  38  52 E12       29.77F
6HR MIN TEMP:  48; 6HR MAX TEMP:  58;

DAVENPORT IA   FAIR      44  35  70 SE18      29.94F
6HR MIN TEMP:  40; 6HR MAX TEMP:  45;

CHICAGO IL     CLOUDY    50  25  37 S21G28    30.05F THUNDER
6HR MIN TEMP:  47; 6HR MAX TEMP:  50;

EAU CLAIRE WI  CLOUDY    42  28  57 SE15G21   29.83F
6HR MIN TEMP:  40; 6HR MAX TEMP:  43; 6HR PCP: TRACE;

LA CROSSE WI   CLOUDY    41  36  82 SE10      29.90F
6HR MIN TEMP:  40; 6HR MAX TEMP:  46; 6HR PCP:  0.19;

$$

  *****  SOME NATIONAL WEATHER *****

CITY           SKY/WX    TMP DP  RH WIND       PRES   REMARKS
LA GUARDIA NY  FAIR      43   2  18 W9        30.51R
6HR MIN TEMP:  38; 6HR MAX TEMP:  45;

RALEIGH NC     FAIR      49  19  30 SE7       30.50F
6HR MIN TEMP:  49; 6HR MAX TEMP:  56;

ATLANTA GA     MOCLDY    62  37  39 SE9G18    30.37S
6HR MIN TEMP:  61; 6HR MAX TEMP:  66;

NEW ORLEANS LA FAIR      75  65  70 SE13      30.17R
6HR MIN TEMP:  75; 6HR MAX TEMP:  83;

OKLAHOMA CITY  FAIR      79  46  31 S30G40    29.75F
6HR MIN TEMP:  77; 6HR MAX TEMP:  85;

ALBUQUERQUE NM PTSUNNY   47  30  51 W28G40    29.81F
6HR MIN TEMP:  44; 6HR MAX TEMP:  69; 6HR PCP: TRACE;

SALT LAKE CITY CLOUDY    40  36  86 CALM      29.98R
6HR MIN TEMP:  33; 6HR MAX TEMP:  40; 6HR PCP:  0.45;

LOS ANGELES CA FAIR      62  50  64 W20       30.11S
6HR MIN TEMP:  62; 6HR M



USA.gov is the U.S. government's official web portal to all federal, state and local government web resources and services.